Simultaneous Nadir Overpasses (SNOs) Predictions

Prediction of SNOs between GOES-15 and METOP-B Satellite Orbit:

Table of predicted SNOs for the next 14.0 days since TLE Epoch: 2/4/2023
Index Date Time (GOES-15) GOES-15 Lat,Lon METOP-B Lat,Lon Distance(km) Time Diff (sec)
1 02/04/2023 06:16:49 0.02,-128.30 -0.78,-131.84 403.67 80
2 02/05/2023 05:58:50 0.02,-128.30 0.34,-126.85 164.94 80
3 02/06/2023 18:15:02 -0.02,-128.25 0.71,-131.41 360.95 80
4 02/07/2023 17:57:04 -0.01,-128.24 -0.41,-126.42 207.63 80
5 02/09/2023 06:13:26 0.02,-128.28 -0.58,-131.03 312.27 80
6 02/10/2023 05:55:28 0.01,-128.28 0.54,-126.04 256.08 80
7 02/11/2023 18:11:40 -0.02,-128.22 0.49,-130.60 270.62 80
8 02/12/2023 17:53:41 -0.02,-128.21 -0.57,-125.60 297.26 80
9 02/14/2023 06:10:03 0.03,-128.24 -0.40,-130.21 224.05 80
10 02/15/2023 05:52:04 0.03,-128.23 0.67,-125.21 343.23 80
11 02/16/2023 18:08:17 -0.04,-128.15 0.30,-129.78 185.23 80
12 02/17/2023 17:50:17 -0.03,-128.13 -0.77,-124.78 381.69 80
